Thedford, NE

2:26 PM CDT on May 22, 2017 (GMT -0500)
Thedford

Weather History for KTIF - November, 2012

Change the Weather History Date:

Thursday, November 22, 2012

  Actual Average (KANW) Record (KANW)
Temperature  
Mean Temperature 38 °F -  
Max Temperature 49 °F 42 °F 75 °F (1998)
Min Temperature 28 °F 23 °F -3 °F (2013)
Degree Days  
Heating Degree Days 26    
Moisture  
Dew Point 24 °F    
Average Humidity 51    
Maximum Humidity 70    
Minimum Humidity 33    
Precipitation  
Precipitation 0.00 in - - ()
Sea Level Pressure  
Sea Level Pressure 30.07 in    
Wind  
Wind Speed 10 mph (NW)    
Max Wind Speed 31 mph    
Max Gust Speed 43 mph    
Visibility 10 miles    
Events      
Averages and records for this station are not official NWS values.
T = Trace of Precipitation, MM = Missing Value Source: NWS Daily Summary

Daily Weather History Graph

Daily Weather History Graph

Search for Another Location

Airport or City:

Trip Planner

Search our weather history database for the weather conditions in past years. The results will help you decide how hot, cold, wet, or windy it might be!

Date:

Astronomy

Nov. 22, 2012 Rise Set
Actual Time 7:41 AM CST 5:15 PM CST
Civil Twilight 7:10 AM CST 5:46 PM CST
Nautical Twilight 6:36 AM CST 6:20 PM CST
Astronomical Twilight 6:03 AM CST 6:53 PM CST
Moon 2:06 PM CST 1:57 AM CST
Length of Visible Light 10h 35m
Length of Day
9h 34m
Waxing Gibbous, 71% of the Moon is Illuminated
Nov 22
Waxing Gibbous
Nov 28
Full
Dec 6
Last Quarter
Dec 13
New
Dec 19
First Quarter

Hourly Weather History & Observations

Time (CST) Temp. Windchill Dew Point Humidity Pressure Visibility Wind Dir Wind Speed Gust Speed Precip Events Conditions
12:15 AM 41.7 °F 39.8 °F 20.8 °F 43% 29.78 in 10.0 mi West 3.5 mph - N/A   Clear
12:35 AM 43.2 °F - 21.6 °F 42% 29.78 in 10.0 mi Calm Calm - N/A   Clear
12:55 AM 43.5 °F 41.9 °F 21.6 °F 42% 29.78 in 10.0 mi West 3.5 mph - N/A   Clear
1:15 AM 45.5 °F 42.5 °F 21.9 °F 39% 29.78 in 10.0 mi WSW 5.8 mph - N/A   Clear
1:35 AM 46.9 °F - 21.7 °F 37% 29.78 in 10.0 mi West 3.5 mph - N/A   Clear
1:55 AM 45.9 °F - 21.9 °F 39% 29.78 in 10.0 mi Calm Calm - N/A   Clear
2:15 AM 41.9 °F 38.2 °F 22.5 °F 46% 29.78 in 10.0 mi West 5.8 mph - N/A   Clear
2:35 AM 43.2 °F 39.0 °F 21.9 °F 43% 29.79 in 10.0 mi West 6.9 mph - N/A   Clear
2:55 AM 42.1 °F 37.7 °F 21.7 °F 44% 29.79 in 10.0 mi West 6.9 mph - N/A   Clear
3:15 AM 41.9 °F 39.0 °F 21.6 °F 44% 29.79 in 10.0 mi West 4.6 mph - N/A   Clear
3:35 AM 44.8 °F 43.3 °F 21.2 °F 39% 29.79 in 10.0 mi WSW 3.5 mph - N/A   Clear
3:55 AM 43.2 °F 39.0 °F 21.9 °F 43% 29.79 in 10.0 mi West 6.9 mph - N/A   Clear
4:15 AM 44.1 °F 41.5 °F 23.0 °F 43% 29.80 in 10.0 mi WNW 4.6 mph - N/A   Clear
4:35 AM 46.6 °F - 22.6 °F 39% 29.81 in 10.0 mi WNW 3.5 mph - N/A   Clear
4:55 AM 45.9 °F 42.9 °F 23.0 °F 41% 29.82 in 10.0 mi NW 5.8 mph - N/A   Clear
5:15 AM 46.9 °F - 25.5 °F 43% 29.83 in 10.0 mi NW 5.8 mph - N/A   Clear
5:35 AM 45.9 °F 42.3 °F 26.8 °F 47% 29.84 in 10.0 mi NNW 6.9 mph - N/A   Clear
5:55 AM 44.6 °F 41.4 °F 28.2 °F 53% 29.85 in 10.0 mi NW 5.8 mph - N/A   Clear
6:15 AM 43.7 °F 40.3 °F 28.4 °F 55% 29.86 in 10.0 mi NW 5.8 mph - N/A   Clear
6:35 AM 42.1 °F 37.7 °F 28.9 °F 60% 29.88 in 10.0 mi NW 6.9 mph - N/A   Clear
6:55 AM 39.7 °F 35.6 °F 28.9 °F 65% 29.89 in 10.0 mi WNW 5.8 mph - N/A   Clear
7:15 AM 40.1 °F 36.9 °F 29.7 °F 66% 29.91 in 10.0 mi NW 4.6 mph - N/A   Clear
7:35 AM 39.6 °F 35.4 °F 30.6 °F 70% 29.92 in 10.0 mi NW 5.8 mph - N/A   Clear
7:55 AM 41.9 °F 36.9 °F 32.0 °F 68% 29.94 in 10.0 mi WNW 8.1 mph - N/A   Clear
8:15 AM 41.9 °F 35.4 °F 32.0 °F 68% 29.96 in 10.0 mi WNW 11.5 mph - N/A   Clear
8:35 AM 41.2 °F 35.0 °F 32.0 °F 70% 29.99 in 10.0 mi WNW 10.4 mph - N/A   Clear
8:55 AM 42.3 °F 35.5 °F 33.1 °F 70% 30.00 in 10.0 mi NW 12.7 mph 17.3 mph N/A   Clear
9:15 AM 43.3 °F 36.1 °F 33.8 °F 69% 30.01 in 10.0 mi NW 15.0 mph 20.7 mph N/A   Clear
9:35 AM 45.0 °F 37.1 °F 34.2 °F 66% 30.02 in 10.0 mi NNW 19.6 mph 26.5 mph N/A   Clear
9:55 AM 45.9 °F 37.0 °F 34.7 °F 65% 30.02 in 10.0 mi NNW 26.5 mph 34.5 mph N/A   Clear
10:15 AM 44.8 °F 35.0 °F 33.4 °F 64% 30.05 in 10.0 mi NNW 29.9 mph 38.0 mph N/A   Clear
10:35 AM 45.7 °F 36.6 °F 32.5 °F 60% 30.07 in 10.0 mi NNW 27.6 mph 36.8 mph N/A   Scattered Clouds
10:55 AM 45.9 °F 36.8 °F 32.9 °F 61% 30.08 in 10.0 mi NNW 27.6 mph 33.4 mph N/A   Scattered Clouds
11:15 AM 46.4 °F 37.9 °F 33.1 °F 60% 30.10 in 10.0 mi NNW 25.3 mph 34.5 mph N/A   Mostly Cloudy
11:35 AM 46.6 °F - 32.2 °F 57% 30.10 in 10.0 mi NW 17.3 mph 26.5 mph N/A   Scattered Clouds
11:55 AM 47.5 °F - 27.0 °F 45% 30.09 in 10.0 mi NNW 20.7 mph 32.2 mph N/A   Scattered Clouds
12:15 PM 47.1 °F - 27.3 °F 46% 30.09 in 10.0 mi NW 24.2 mph 34.5 mph N/A   Scattered Clouds
12:35 PM 48.4 °F - 25.7 °F 41% 30.09 in 10.0 mi NW 25.3 mph 34.5 mph N/A   Scattered Clouds
12:55 PM 49.3 °F - 27.0 °F 42% 30.10 in 10.0 mi NNW 25.3 mph 31.1 mph N/A   Scattered Clouds
1:15 PM 48.6 °F - 27.5 °F 44% 30.11 in 10.0 mi NNW 17.3 mph 29.9 mph N/A   Mostly Cloudy
1:35 PM 49.3 °F - 28.2 °F 44% 30.11 in 10.0 mi NNW 20.7 mph 29.9 mph N/A   Mostly Cloudy
1:55 PM 47.3 °F - 24.3 °F 40% 30.12 in 10.0 mi NNW 21.9 mph 29.9 mph N/A   Overcast
2:15 PM 49.5 °F - 22.3 °F 34% 30.12 in 10.0 mi NNW 27.6 mph 32.2 mph N/A   Scattered Clouds
2:35 PM 49.8 °F - 21.9 °F 33% 30.13 in 10.0 mi NNW 20.7 mph 27.6 mph N/A   Scattered Clouds
2:55 PM 48.4 °F - 21.0 °F 34% 30.14 in 10.0 mi NW 20.7 mph 27.6 mph N/A   Scattered Clouds
3:15 PM 48.9 °F - 20.7 °F 33% 30.14 in 10.0 mi NNW 23.0 mph 27.6 mph N/A   Clear
3:35 PM 44.6 °F 34.6 °F 25.5 °F 47% 30.17 in 10.0 mi NNW 31.1 mph 42.6 mph N/A   Scattered Clouds
3:55 PM 44.6 °F 37.2 °F 26.4 °F 49% 30.17 in 10.0 mi NNW 17.3 mph 35.7 mph N/A   Clear
4:15 PM 46.0 °F 39.3 °F 24.6 °F 43% 30.19 in 10.0 mi NW 16.1 mph 28.8 mph N/A   Clear
4:35 PM 44.8 °F 39.0 °F 24.1 °F 44% 30.20 in 10.0 mi NW 11.5 mph 19.6 mph N/A   Clear
4:55 PM 43.9 °F 38.3 °F 22.5 °F 43% 30.20 in 10.0 mi NW 10.4 mph - N/A   Scattered Clouds
5:15 PM 43.2 °F 37.9 °F 21.0 °F 41% 30.21 in 10.0 mi NW 9.2 mph - N/A   Scattered Clouds
5:35 PM 42.3 °F 34.8 °F 16.3 °F 35% 30.22 in 10.0 mi NNW 15.0 mph - N/A   Clear
5:55 PM 41.0 °F 33.5 °F 15.8 °F 36% 30.23 in 10.0 mi NNW 13.8 mph 18.4 mph N/A   Clear
6:15 PM 39.0 °F 32.3 °F 15.8 °F 39% 30.25 in 10.0 mi NW 10.4 mph - N/A   Clear
6:35 PM 38.7 °F 30.9 °F 16.3 °F 40% 30.26 in 10.0 mi NNW 12.7 mph - N/A   Clear
6:55 PM 39.2 °F 30.2 °F 19.2 °F 45% 30.27 in 10.0 mi NNW 17.3 mph 20.7 mph N/A   Clear
7:15 PM 37.9 °F 30.9 °F 20.8 °F 50% 30.28 in 10.0 mi NNW 10.4 mph - N/A   Clear
7:35 PM 34.7 °F 29.6 °F 20.3 °F 56% 30.28 in 10.0 mi NW 5.8 mph - N/A   Clear
7:55 PM 32.7 °F 26.4 °F 20.3 °F 60% 30.28 in 10.0 mi West 6.9 mph - N/A   Clear
8:15 PM 32.0 °F 26.4 °F 20.3 °F 62% 30.29 in 10.0 mi WNW 5.8 mph - N/A   Clear
8:35 PM 31.8 °F 25.4 °F 20.7 °F 63% 30.31 in 10.0 mi West 6.9 mph - N/A   Clear
8:55 PM 30.7 °F 23.3 °F 20.3 °F 65% 30.32 in 10.0 mi West 8.1 mph - N/A   Clear
9:15 PM 31.3 °F 24.7 °F 20.7 °F 65% 30.34 in 10.0 mi WNW 6.9 mph - N/A   Clear
9:35 PM 31.1 °F 21.9 °F 21.2 °F 67% 30.35 in 10.0 mi NNW 11.5 mph - N/A   Clear
9:55 PM 32.9 °F 21.3 °F 22.6 °F 66% 30.35 in 10.0 mi NNW 19.6 mph 25.3 mph N/A   Clear
10:15 PM 32.5 °F 21.2 °F 21.2 °F 63% 30.37 in 10.0 mi NNW 18.4 mph 27.6 mph N/A   Clear
10:35 PM 32.2 °F 20.0 °F 18.5 °F 57% 30.38 in 10.0 mi NW 20.7 mph 31.1 mph N/A   Clear
10:55 PM 31.3 °F 19.9 °F 18.0 °F 58% 30.38 in 10.0 mi NW 17.3 mph 27.6 mph N/A   Clear
11:15 PM 30.0 °F 17.9 °F 17.1 °F 59% 30.39 in 10.0 mi NW 18.4 mph - N/A   Clear
11:35 PM 28.9 °F 14.8 °F 16.3 °F 59% 30.40 in 10.0 mi NNW 24.2 mph 32.2 mph N/A   Clear
11:55 PM 28.6 °F 15.3 °F 14.5 °F 56% 30.40 in 10.0 mi NW 20.7 mph 29.9 mph N/A   Clear